EHI
0 0 0 0 0 0 0 0 0 0 0 0 0 0 0 0 0 0 0 0 0 0 0 0 0 0 0 0 0 0 0 0 0 0 0 0 0 0
0 0 0 0 0 0 0 0 0 0 0 0 0 0 0 0 0 0 0 0 0 0 0 0 0 0 0 0 0 0 0 0 0 0 0 0 0 0
0 0 0 0 0 0 0 0 0 0 0 0 0 0 0 0 0 0 0 0 0 0 0 0 0 0 0 0 0 0 0 0 0 0 0 0 0 0
0 0 0 0 0 0 0 0 0 0 0 0 0 0 0 0 0 0 0 0 0 0 0 0 0 0 0 0 0 0 0 0 0 0 0 0 0 0
0 0 0 0 0 0 0 0 0 0 0 0 0 0 0 0 0 0 0 0 0 0 0 0 0 0 0 0 0 0 0 0 0 0 0 0 0 0
0 0 0 0 0 0 0 0 0 0 0 0 0 0 0 0 0 0 0 0 0 0 0 0 0 0 0 0 0 0 0 0 0 0 0 0 0 0
0 0 0 0 0 0 0 0 0 0 0 0 0 0 0 0 0 0 0 0 0 0 0 0 0 0 0 0 0 0 0 0 0 0 0 0 0 0
0 0 0 0 0 0 0 0 0 0 0 0 0 0 0 0 0 0 0 0 0 0 0 0 0 0 0 0 0 0 0 0 0 0 0 0 0 0
0 0 0 0 0 0 0 0 0 0 0 0 0 0 0 0 0 0 0 0 0 0 0 0 0 0 0 0 0 0 0 0 0 0 0 0 0 0
0 0 0 0 0 0 0 0 0 0 0 0 0 0 0 0 0 0 0 0 0 0 0 0 0 0 0 0 0 0 0 0 0 0 0 0 0 0
0 0 0 0 0 0 0 0 0 0 0 0 0 0 0 0 0 0 0 0 0 0 0 0 0 0 0 0 0 0 0 0 0 0 0 0 0 0
0 0 0 0 0 0 0 0 0 0 0 0 0 0 0 0 0 0 0 0 0 0 0 0 0 0 0 0 0 0 0 0 0 0 0 0 0 0
0 0 0 0 0 0 0 0 0 0 0 0 0 0 0 0 0 0 0 0 0 0 0 0 0 0 0 0 0 0 0 0 0 0 0 0 0 0
0 0 0 0 0 0 0 0 0 0 0 0 0 0 0 0 0 0 0 0 0 0 0 0 0 0 0 0 0 0 0 0 0 0 0 0 0 0
0 0 0 0 0 0 0 0 0 0 0 0 0 0 0 0 0 0 0 0 0 0 0 0 0 0 0 0 0 0 0 0 0 0 0 0 0 0
0 0 0 0 0 0 0 0 0 0 0 0 0 0 0 0 0 0 0 0 0 0 0 0 0 0 0 0 0 0 0 0 0 0 0 0 0 0
0 0 0 0 0 0 0 0 0 0 0 0 0 0 0 0 0 0 0 0 0 0 0 0 0 0 0 0 0 0 0 0 0 0 0 0 0 0
0 0 0 0 0 0 0 0 0 0 0 0 0 0 0 0 0 0 0 0 0 0 0 0 0 0 0 0 0 0 0 0 0 0 0 0 0 0
0 0 0 0 0 0 0 0 0 0 0 0 0 0 0 0 0 0 0 0 0 0 0 0 0 0 0 0 0 0 0 0 0 0 0 0 0 0
0 0 0 0 0 0 0 0 0 0 0 0 0 0 0 0 0 0 0 0 0 0 0 0 0 0 0 0 0 0 0 0 0 0 0 0 0 0
0 0 0 0 0 0 0 0 0 0 0 0 0 0 0 0 0 0 0 0 0 0 0 0 0 0 0 0 0 0 0 0 0 0 0 0 0 0
0 0 0 0 0 0 0 0 0 0 0 0 0 0 0 0 0 0 0 0 0 0 0 0 0 0 0 0 0 0 0 0 0 0 0 0 0 0
0 0 0 0 0 0 0 0 0 0 0 0 0 0 0 0 0 0 0 0 0 0 0 0 0 0 0 0 0 0 0 0 0 0 0 0 0 0
Wind_Speed
2 2 2 1 2 2 2 2 2 4 6 4 2 2 3 3 6 5 5 11 15 15 15 15 15 15 16 16 17 18 18 19 19 20 20 20 21 21
2 2 2 1 1 1 2 2 2 4 6 4 3 3 4 5 8 6 6 13 14 15 16 16 15 16 16 17 17 18 18 19 19 19 20 20 20 21
1 2 2 1 1 1 1 2 2 3 6 6 4 3 4 5 6 5 6 6 7 14 16 16 16 16 16 17 17 18 19 19 19 19 19 20 20 20
2 1 2 1 2 2 2 2 3 3 4 7 6 4 4 5 6 6 6 6 6 12 15 16 16 16 16 17 17 18 18 18 19 19 19 20 20 20
2 2 2 2 2 2 2 3 3 3 3 5 6 5 4 4 6 6 7 6 7 9 12 14 15 17 17 17 17 17 17 18 18 19 19 19 19 19
1 1 2 2 3 3 3 3 3 3 3 4 5 5 5 4 4 5 7 5 6 6 8 11 14 16 17 17 17 17 17 17 18 19 18 17 17 18
0 0 1 3 4 4 3 3 3 3 3 4 5 5 5 5 5 5 7 7 6 4 5 6 7 6 8 12 14 16 17 17 18 18 17 17 17 17
1 1 1 2 3 5 6 6 6 5 4 4 5 5 6 6 6 6 6 7 7 3 5 7 5 7 6 6 13 18 17 16 17 17 17 17 17 18
1 1 2 3 4 3 5 6 6 8 8 6 6 6 7 6 6 7 6 7 8 6 6 8 5 6 6 9 17 17 16 16 17 17 17 18 18 18
2 2 2 3 3 4 3 4 4 5 6 4 5 6 6 6 6 6 7 7 7 6 4 7 6 6 7 7 13 16 16 17 18 18 17 18 18 18
1 2 2 3 5 6 4 4 5 5 6 8 8 9 10 11 8 5 5 5 7 5 2 4 5 7 6 6 8 13 16 17 18 18 18 18 18 18
1 2 4 5 6 7 4 4 5 5 5 5 6 7 6 7 9 5 4 5 6 5 3 3 4 5 6 4 4 6 8 13 17 18 18 18 17 11
2 2 3 6 7 8 7 4 6 6 4 4 4 4 4 4 3 3 3 4 5 6 4 3 4 4 5 7 5 5 6 7 8 10 14 16 17 13
2 2 3 6 8 8 6 6 9 7 3 3 4 4 4 4 4 4 5 5 6 7 7 5 5 5 6 8 7 5 5 6 6 7 7 12 14 16
2 4 6 7 7 5 6 8 7 3 3 3 4 4 4 4 5 4 5 5 6 6 6 6 6 6 6 7 7 7 8 7 5 6 6 7 7 7
2 3 5 5 5 5 5 4 3 3 3 3 4 4 4 4 4 4 4 4 5 5 4 5 6 6 6 7 8 9 7 6 6 7 8 8 7 6
2 2 1 2 2 2 3 3 3 3 3 3 4 4 4 4 4 4 3 4 4 5 6 5 4 5 7 7 7 7 7 7 7 7 8 9 8 7
2 1 2 2 3 3 4 4 3 3 3 3 4 3 4 4 5 4 4 4 5 6 6 6 6 5 4 4 7 7 6 6 7 7 7 8 10 8
1 1 2 3 3 3 3 4 4 4 3 3 4 4 4 4 4 4 4 4 5 5 5 5 4 4 6 8 6 4 5 8 8 7 6 7 9 10
1 2 2 3 3 3 4 4 4 4 3 3 4 4 4 4 4 4 4 5 5 6 6 5 4 4 5 6 7 7 9 8 7 8 8 7 7 10
2 2 3 3 3 3 4 4 4 4 4 4 4 4 3 4 4 4 4 7 6 5 6 6 6 9 6 4 6 7 6 8 9 8 8 8 8 7
3 3 3 3 3 3 4 4 4 4 4 3 3 3 3 3 4 5 4 5 5 5 6 6 6 5 3 4 6 8 8 8 9 11 10 8 6 6
3 3 3 3 3 3 3 4 5 4 4 3 3 3 3 3 4 4 4 4 5 5 6 6 5 4 4 4 5 6 9 9 7 7 7 10 11 11
Wind_Direction
189 195 212 226 222 226 211 205 222 283 286 274 275 284 302 301 309 312 304 309 314 315 314 313 311 310 310 309 308 307 307 306 303 300 299 298 298 298
189 184 214 232 233 237 224 230 224 240 272 274 271 283 299 306 311 307 299 311 313 312 311 311 309 309 309 308 307 306 306 306 306 303 300 299 297 297
194 192 221 230 243 258 248 248 249 241 266 284 283 287 286 292 302 298 294 293 300 307 309 310 309 310 310 310 308 307 307 306 306 306 306 305 302 300
207 205 238 248 254 263 258 257 260 254 256 280 291 290 283 287 295 298 304 305 298 302 308 310 311 311 311 311 309 308 308 308 307 306 304 303 301 300
207 216 243 239 263 273 270 266 267 272 260 269 284 287 284 290 301 298 295 292 300 303 307 309 310 310 310 310 309 309 309 308 306 304 303 302 301 300
210 228 248 248 252 259 268 265 269 279 275 275 282 288 287 290 294 301 306 303 303 302 302 305 306 307 308 309 309 309 308 308 307 306 305 304 303 301
219 275 279 281 283 285 282 275 276 278 278 281 283 290 294 305 304 300 301 305 299 287 298 298 300 297 302 304 307 307 308 308 309 309 309 308 304 302
201 284 289 292 299 309 306 298 290 282 278 278 282 287 292 294 296 297 299 307 303 297 300 296 292 293 294 293 303 307 308 310 311 311 310 309 306 303
215 245 282 288 309 296 297 302 301 295 289 280 278 280 283 284 288 290 289 288 285 292 299 290 286 288 291 297 303 305 308 310 312 312 311 310 308 304
234 242 256 274 280 287 288 295 295 297 293 285 267 273 277 277 271 277 282 286 280 276 270 281 291 289 295 293 300 305 309 311 312 312 311 311 310 307
266 265 268 267 276 295 299 294 299 300 306 303 299 297 299 300 298 296 295 297 294 291 264 274 290 299 291 282 295 307 310 311 312 312 312 311 310 309
286 274 278 287 291 300 297 291 296 299 304 307 309 308 306 302 303 291 282 288 293 294 284 289 293 315 306 280 284 299 305 308 310 310 312 313 312 308
273 281 281 296 302 304 305 295 290 301 303 302 303 303 303 297 295 288 272 267 276 273 283 295 290 291 280 298 298 287 291 299 304 303 306 310 312 309
268 276 284 298 304 309 309 305 309 315 309 302 300 300 301 301 299 294 285 272 261 266 275 276 275 284 290 293 294 298 296 294 296 297 299 307 308 307
274 286 300 306 311 312 310 311 315 312 298 295 294 293 293 293 296 297 294 287 280 271 270 265 266 277 278 282 289 294 303 299 291 296 301 303 301 302
301 302 311 314 314 311 313 314 309 290 291 287 291 291 295 298 296 297 301 309 304 296 280 267 263 266 276 276 279 289 292 293 305 305 304 302 300 294
320 326 325 318 311 309 308 306 304 303 300 293 290 295 300 302 302 301 297 302 296 301 308 305 284 266 259 267 279 282 289 291 294 303 308 306 303 299
332 308 300 298 295 297 300 303 300 296 294 294 292 290 295 300 303 304 302 298 296 299 302 308 316 317 306 274 246 272 287 293 300 304 302 304 306 307
327 289 287 288 291 293 293 291 291 291 292 289 290 291 292 297 301 303 305 305 303 303 304 306 313 318 319 316 299 265 291 302 305 305 302 298 300 304
312 290 288 289 290 290 289 290 293 296 292 289 291 291 290 296 300 302 305 306 307 310 311 312 312 308 300 298 297 297 298 295 301 305 306 299 292 295
294 289 286 288 287 286 288 289 291 291 292 293 292 292 293 294 297 300 303 306 310 310 312 312 304 307 294 289 295 299 300 304 307 305 307 308 310 315
287 285 286 284 284 285 287 289 292 292 295 293 293 295 295 294 297 301 303 305 306 304 303 304 308 312 309 302 303 306 311 315 318 321 318 309 307 313
282 284 285 284 282 283 285 288 291 292 292 293 295 296 297 299 298 298 300 301 304 306 309 313 316 312 304 299 302 307 312 318 324 331 328 332 330 320